User: anonymous   Login
Location: Shell Point
(30.0571°N, 84.2896°W)
Time: 21:35:40
(UTC-04:00)
Language:

Meteor 2-19 Rocket - Orbit

View from above orbital plane
View from above orbital plane
View from above satellite
View from above satellite

Ground track
Ground track

The orbit data is extracted from the following two-line orbital elements,

1 20671U 90057B   17112.93869418 +.00000017 +00000-0 +19904-5 0  9993
2 20671 082.5487 056.0287 0016455 110.3972 249.8957 13.84607298355144
Epoch (UTC): 22 April 2017 22:31:43
Eccentricity: 0.0016455
inclination: 82.5487°
perigee height: 935 km
apogee height: 959 km
right ascension of ascending node: 56.0287°
argument of perigee: 110.3972°
revolutions per day: 13.84607298
mean anomaly at epoch: 249.8957°
orbit number at epoch: 35514

The dashed part of the orbit path shows where the satellite is in the earth's shadow,  

DLR